Location: ???????
(55.5931°N, 39.3286°E)
Time: 20:49:29
(UTC+00:00)

Cosmos 1151 Rocket - Pass Details

Date: 14 April 2024
Orbit: 589 x 611 km, 82.5° (Epoch: 17 May)

Event Time Altitude Azimuth Distance (km) Brightness Sun altitude
Exits shadow 01:04:05 - 198° (SSW) 2,088 5.3 -10.4°
Reaches altitude 10° 01:04:27 10° 198° (SSW) 1,941 5.1 -10.4°
Maximum altitude 01:08:45 72° 284° (WNW) 639 3.0 -9.9°
Drops below altitude 10° 01:13:06 10° 9° (N) 1,971 6.3 -9.4°
Sets 01:15:21 0° 12° (NNE) 2,883 7.2 -9.1°
